DAL1237 KCLT-KIAD

Flight info

Callsign DAL1237
Flight time 1h 3m
Altitude 37000
Route KILNS5 AUDII DORRN CAVLR6
Aircraft A21N/M-SDE3FGHIRWY/LB1

Departure

Time 2026-05-05 01:00
Airport Charlotte Douglas International Airport (KCLT)

Arrival

Time 2026-05-05 02:03
Airport Washington Dulles International Airport (KIAD)
Time Latitude Longitude Altitude Speed Heading
2026-05-05 00:18 35.21993 -80.94060 755 ft 0 kts 25°
2026-05-05 00:47 35.21992 -80.94060 755 ft 1 kts 25°
2026-05-05 00:47 35.21979 -80.94067 755 ft 2 kts 24°
2026-05-05 00:48 35.21965 -80.94075 755 ft 2 kts 25°
2026-05-05 00:48 35.21951 -80.94083 755 ft 2 kts 34°
2026-05-05 00:48 35.21941 -80.94096 755 ft 2 kts 60°
2026-05-05 00:48 35.21935 -80.94113 755 ft 2 kts 82°
2026-05-05 00:49 35.21934 -80.94130 755 ft 0 kts 101°
2026-05-05 00:49 35.21936 -80.94138 755 ft 1 kts 102°
2026-05-05 00:54 35.21932 -80.94119 755 ft 4 kts 105°
2026-05-05 00:54 35.21910 -80.94048 755 ft 11 kts 109°
2026-05-05 00:54 35.21904 -80.93952 755 ft 11 kts 68°
2026-05-05 00:55 35.21959 -80.93865 755 ft 13 kts 45°
2026-05-05 00:55 35.22038 -80.93816 755 ft 13 kts 358°
2026-05-05 00:55 35.22134 -80.93824 755 ft 10 kts 355°
2026-05-05 00:55 35.22189 -80.93793 755 ft 10 kts 81°
2026-05-05 00:56 35.22227 -80.93729 755 ft 10 kts
2026-05-05 00:56 35.22308 -80.93735 755 ft 12 kts 353°
2026-05-05 00:56 35.22399 -80.93744 755 ft 13 kts 354°
2026-05-05 00:56 35.22477 -80.93748 755 ft 8 kts
2026-05-05 00:57 35.22492 -80.93736 755 ft 0 kts 46°
2026-05-05 00:58 35.22493 -80.93736 755 ft 0 kts 46°
2026-05-05 00:58 35.22502 -80.93711 755 ft 5 kts 73°
2026-05-05 00:58 35.22503 -80.93647 755 ft 8 kts 116°
2026-05-05 00:58 35.22449 -80.93615 755 ft 9 kts 174°
2026-05-05 00:59 35.22384 -80.93610 755 ft 9 kts 176°
2026-05-05 00:59 35.22311 -80.93604 755 ft 12 kts 175°
2026-05-05 00:59 35.22022 -80.93581 755 ft 76 kts 176°
2026-05-05 00:59 35.21273 -80.93516 755 ft 137 kts 175°
2026-05-05 01:00 35.20161 -80.93418 929 ft 170 kts 177°
2026-05-05 01:00 35.19012 -80.93331 1664 ft 162 kts 180°
2026-05-05 01:00 35.17919 -80.93270 2423 ft 158 kts 181°
2026-05-05 01:00 35.16830 -80.93225 2901 ft 162 kts 181°
2026-05-05 01:01 35.15654 -80.93160 3220 ft 176 kts 180°
2026-05-05 01:01 35.14374 -80.93074 3554 ft 190 kts 179°
2026-05-05 01:01 35.13007 -80.92965 3904 ft 204 kts 179°
2026-05-05 01:01 35.11531 -80.92828 4177 ft 224 kts 177°
2026-05-05 01:02 35.09898 -80.92593 4476 ft 247 kts 168°
2026-05-05 01:02 35.08314 -80.91617 4961 ft 266 kts 140°
2026-05-05 01:02 35.07260 -80.89765 5624 ft 277 kts 112°
2026-05-05 01:02 35.07065 -80.87402 6287 ft 287 kts 81°
2026-05-05 01:03 35.07838 -80.85197 6955 ft 291 kts 53°
2026-05-05 01:03 35.09145 -80.83306 7614 ft 295 kts 47°
2026-05-05 01:03 35.10528 -80.81383 8324 ft 300 kts 49°
2026-05-05 01:03 35.11552 -80.79809 8943 ft 302 kts 51°
2026-05-05 01:04 35.12764 -80.77750 9700 ft 303 kts 53°
2026-05-05 01:04 35.15074 -80.73337 10805 ft 321 kts 55°
2026-05-05 01:04 35.16242 -80.70966 11319 ft 330 kts 56°
2026-05-05 01:05 35.17414 -80.68555 12031 ft 332 kts 56°
2026-05-05 01:05 35.18589 -80.66138 12736 ft 333 kts 56°
2026-05-05 01:05 35.19774 -80.63707 13398 ft 335 kts 55°
2026-05-05 01:05 35.20969 -80.61253 14023 ft 339 kts 55°
2026-05-05 01:06 35.22180 -80.58762 14631 ft 342 kts 55°
2026-05-05 01:06 35.23386 -80.56281 15284 ft 345 kts 55°
2026-05-05 01:06 35.24626 -80.53731 15876 ft 349 kts 55°
2026-05-05 01:06 35.25856 -80.51202 16395 ft 352 kts 55°
2026-05-05 01:07 35.27110 -80.48624 16976 ft 356 kts 54°
2026-05-05 01:07 35.28387 -80.45993 17542 ft 359 kts 54°
2026-05-05 01:07 35.29655 -80.43377 18077 ft 362 kts 54°
2026-05-05 01:07 35.30955 -80.40692 18580 ft 366 kts 54°
2026-05-05 01:08 35.32241 -80.38035 19065 ft 370 kts 54°
2026-05-05 01:08 35.33567 -80.35289 19564 ft 373 kts 54°
2026-05-05 01:08 35.34896 -80.32536 20029 ft 376 kts 54°
2026-05-05 01:08 35.36237 -80.29759 20498 ft 379 kts 54°
2026-05-05 01:09 35.37577 -80.26986 20964 ft 382 kts 54°
2026-05-05 01:09 35.38922 -80.24197 21419 ft 385 kts 54°
2026-05-05 01:09 35.40279 -80.21378 21873 ft 387 kts 54°
2026-05-05 01:09 35.41649 -80.18504 22311 ft 390 kts 56°
2026-05-05 01:10 35.42886 -80.15576 22746 ft 394 kts 60°
2026-05-05 01:10 35.43985 -80.12467 23168 ft 398 kts 64°
2026-05-05 01:10 35.44974 -80.09283 23587 ft 401 kts 65°
2026-05-05 01:10 35.45943 -80.06085 24005 ft 404 kts 65°
2026-05-05 01:11 35.46919 -80.02854 24409 ft 407 kts 65°
2026-05-05 01:11 35.47897 -79.99625 24806 ft 409 kts 65°
2026-05-05 01:11 35.48899 -79.96330 25215 ft 411 kts 65°
2026-05-05 01:11 35.49896 -79.93053 25588 ft 414 kts 65°
2026-05-05 01:12 35.50913 -79.89716 25945 ft 416 kts 65°
2026-05-05 01:12 35.51925 -79.86388 26305 ft 419 kts 65°
2026-05-05 01:12 35.52937 -79.83056 26643 ft 421 kts 65°
2026-05-05 01:12 35.53966 -79.79697 26977 ft 424 kts 64°
2026-05-05 01:13 35.55026 -79.76298 27316 ft 426 kts 64°
2026-05-05 01:13 35.56090 -79.72901 27648 ft 429 kts 64°
2026-05-05 01:13 35.57157 -79.69500 27971 ft 431 kts 64°
2026-05-05 01:13 35.58266 -79.65954 28300 ft 434 kts 64°
2026-05-05 01:14 35.59339 -79.62515 28619 ft 437 kts 64°
2026-05-05 01:14 35.60436 -79.58994 28928 ft 439 kts 64°
2026-05-05 01:14 35.61524 -79.55492 29227 ft 442 kts 64°
2026-05-05 01:14 35.62608 -79.52006 29523 ft 444 kts 64°
2026-05-05 01:15 35.64820 -79.44872 30117 ft 449 kts 64°
2026-05-05 01:15 35.65940 -79.41255 30389 ft 452 kts 64°
2026-05-05 01:15 35.67057 -79.37640 30681 ft 455 kts 64°
2026-05-05 01:16 35.68238 -79.34036 30924 ft 456 kts 60°
2026-05-05 01:16 35.69692 -79.30605 31189 ft 455 kts 54°
2026-05-05 01:16 35.71469 -79.27360 31456 ft 453 kts 47°
2026-05-05 01:16 35.73517 -79.24406 31726 ft 451 kts 40°
2026-05-05 01:17 35.75789 -79.21787 31976 ft 449 kts 33°
2026-05-05 01:17 35.78269 -79.19416 32222 ft 449 kts 30°
2026-05-05 01:17 35.80808 -79.17123 32457 ft 451 kts 29°
2026-05-05 01:17 35.83369 -79.14829 32672 ft 453 kts 29°
2026-05-05 01:18 35.85926 -79.12522 32891 ft 456 kts 29°
2026-05-05 01:18 35.88505 -79.10181 33105 ft 458 kts 29°
2026-05-05 01:18 35.91077 -79.07828 33351 ft 460 kts 30°
2026-05-05 01:18 35.93654 -79.05465 33577 ft 461 kts 30°
2026-05-05 01:19 35.96239 -79.03092 33782 ft 463 kts 29°
2026-05-05 01:19 35.98809 -79.00729 34058 ft 463 kts 30°
2026-05-05 01:19 36.01409 -78.98332 34370 ft 463 kts 30°
2026-05-05 01:19 36.03981 -78.95959 34659 ft 462 kts 29°
2026-05-05 01:20 36.06534 -78.93608 34916 ft 461 kts 29°
2026-05-05 01:20 36.09101 -78.91243 35153 ft 461 kts 30°
2026-05-05 01:20 36.11675 -78.88872 35376 ft 461 kts 29°
2026-05-05 01:20 36.14253 -78.86494 35604 ft 460 kts 30°
2026-05-05 01:21 36.16801 -78.84137 35798 ft 461 kts 30°
2026-05-05 01:21 36.19405 -78.81824 35957 ft 460 kts 27°
2026-05-05 01:21 36.22100 -78.79706 36134 ft 458 kts 23°
2026-05-05 01:21 36.24845 -78.77778 36306 ft 456 kts 21°
2026-05-05 01:22 36.27642 -78.75880 36525 ft 456 kts 21°
2026-05-05 01:22 36.29987 -78.74304 36700 ft 456 kts 21°
2026-05-05 01:22 36.34322 -78.71394 36939 ft 458 kts 21°
2026-05-05 01:23 36.39921 -78.67595 36988 ft 459 kts 21°
2026-05-05 01:23 36.45470 -78.63814 36993 ft 458 kts 21°
2026-05-05 01:24 36.51067 -78.60005 36989 ft 458 kts 21°
2026-05-05 01:24 36.56651 -78.56195 36984 ft 457 kts 21°
2026-05-05 01:25 36.62213 -78.52397 36988 ft 457 kts 21°
2026-05-05 01:25 36.67789 -78.48585 36979 ft 458 kts 21°
2026-05-05 01:26 36.73353 -78.44762 36988 ft 457 kts 22°
2026-05-05 01:26 36.78919 -78.40948 36992 ft 457 kts 21°
2026-05-05 01:27 36.84483 -78.37123 36990 ft 457 kts 21°
2026-05-05 01:27 36.90048 -78.33288 36800 ft 454 kts 22°
2026-05-05 01:28 36.92785 -78.31397 36115 ft 457 kts 22°
2026-05-05 01:28 36.95600 -78.29453 35288 ft 464 kts 22°
2026-05-05 01:28 36.98455 -78.27480 34503 ft 467 kts 22°
2026-05-05 01:28 37.01262 -78.25531 33771 ft 468 kts 22°
2026-05-05 01:29 37.04111 -78.23554 33090 ft 467 kts 22°
2026-05-05 01:29 37.06967 -78.21574 32466 ft 464 kts 22°
2026-05-05 01:29 37.09758 -78.19633 31923 ft 459 kts 22°
2026-05-05 01:29 37.12447 -78.17760 31459 ft 455 kts 22°
2026-05-05 01:30 37.14779 -78.16138 31049 ft 449 kts 22°
2026-05-05 01:30 37.17434 -78.14288 30603 ft 444 kts 22°
2026-05-05 01:30 37.20124 -78.12426 30093 ft 439 kts 22°
2026-05-05 01:30 37.22794 -78.10567 29610 ft 433 kts 23°
2026-05-05 01:31 37.25397 -78.08751 29127 ft 428 kts 23°
2026-05-05 01:31 37.28011 -78.06927 28651 ft 423 kts 23°
2026-05-05 01:31 37.30548 -78.05156 28177 ft 419 kts 23°
2026-05-05 01:31 37.33094 -78.03383 27706 ft 414 kts 22°
2026-05-05 01:32 37.35623 -78.01620 27254 ft 410 kts 23°
2026-05-05 01:32 37.38094 -77.99899 26805 ft 406 kts 23°
2026-05-05 01:32 37.40559 -77.98176 26353 ft 402 kts 23°
2026-05-05 01:32 37.43002 -77.96468 25892 ft 399 kts 23°
2026-05-05 01:33 37.45421 -77.94779 25438 ft 396 kts 23°
2026-05-05 01:33 37.47794 -77.93120 24996 ft 392 kts 23°
2026-05-05 01:33 37.50185 -77.91444 24554 ft 389 kts 23°
2026-05-05 01:33 37.52539 -77.89808 24121 ft 385 kts 22°
2026-05-05 01:34 37.54942 -77.88322 23677 ft 381 kts 19°
2026-05-05 01:34 37.57317 -77.86964 23252 ft 378 kts 18°
2026-05-05 01:34 37.59726 -77.85606 22836 ft 376 kts 18°
2026-05-05 01:34 37.62085 -77.84276 22418 ft 373 kts 18°
2026-05-05 01:35 37.64451 -77.82938 22006 ft 370 kts 18°
2026-05-05 01:35 37.66810 -77.81608 21533 ft 370 kts 18°
2026-05-05 01:35 37.69152 -77.80310 21003 ft 370 kts 17°
2026-05-05 01:35 37.71521 -77.79002 20481 ft 370 kts 18°
2026-05-05 01:36 37.73867 -77.77703 19958 ft 370 kts 18°
2026-05-05 01:36 37.76207 -77.76408 19425 ft 370 kts 18°
2026-05-05 01:36 37.78572 -77.75098 18896 ft 369 kts 18°
2026-05-05 01:36 37.80936 -77.73788 18354 ft 369 kts 18°
2026-05-05 01:37 37.83283 -77.72481 17810 ft 368 kts 18°
2026-05-05 01:37 37.85651 -77.71161 17246 ft 368 kts 18°
2026-05-05 01:37 37.87983 -77.69857 16694 ft 367 kts 17°
2026-05-05 01:37 37.90321 -77.68544 16295 ft 361 kts 17°
2026-05-05 01:38 37.92601 -77.67266 15842 ft 358 kts 17°
2026-05-05 01:38 37.94876 -77.65992 15393 ft 355 kts 17°
2026-05-05 01:38 37.97111 -77.64742 14951 ft 351 kts 17°
2026-05-05 01:38 37.99344 -77.63494 14517 ft 348 kts 17°
2026-05-05 01:39 38.01527 -77.62270 14089 ft 344 kts 17°
2026-05-05 01:39 38.03718 -77.61041 13662 ft 341 kts 16°
2026-05-05 01:39 38.05854 -77.59808 13227 ft 339 kts 19°
2026-05-05 01:39 38.07979 -77.58477 12797 ft 336 kts 19°
2026-05-05 01:40 38.10048 -77.57161 12361 ft 333 kts 19°
2026-05-05 01:40 38.12113 -77.55845 11919 ft 330 kts 19°
2026-05-05 01:40 38.14160 -77.54542 11522 ft 327 kts 19°
2026-05-05 01:40 38.16179 -77.53260 11100 ft 324 kts 19°
2026-05-05 01:41 38.18122 -77.52022 10729 ft 321 kts 19°
2026-05-05 01:41 38.20128 -77.50738 10311 ft 318 kts 19°
2026-05-05 01:41 38.22080 -77.49489 10035 ft 311 kts 19°
2026-05-05 01:41 38.23987 -77.48395 10002 ft 293 kts 13°
2026-05-05 01:42 38.25902 -77.47578 10002 ft 285 kts
2026-05-05 01:42 38.27790 -77.46906 9999 ft 284 kts
2026-05-05 01:42 38.29723 -77.46237 9995 ft 285 kts
2026-05-05 01:42 38.31636 -77.45574 9987 ft 285 kts
2026-05-05 01:43 38.33531 -77.44910 9969 ft 284 kts
2026-05-05 01:43 38.35439 -77.44240 9772 ft 286 kts
2026-05-05 01:43 38.37371 -77.43562 9363 ft 286 kts
2026-05-05 01:43 38.39281 -77.42892 8981 ft 285 kts
2026-05-05 01:44 38.41200 -77.42216 8614 ft 284 kts
2026-05-05 01:44 38.43095 -77.41551 8257 ft 283 kts
2026-05-05 01:44 38.44990 -77.40883 7900 ft 281 kts
2026-05-05 01:44 38.46874 -77.40215 7552 ft 280 kts
2026-05-05 01:45 38.48756 -77.39549 7206 ft 279 kts
2026-05-05 01:45 38.50621 -77.38896 6927 ft 278 kts
2026-05-05 01:45 38.52505 -77.38287 6940 ft 283 kts
2026-05-05 01:45 38.54435 -77.37677 6805 ft 284 kts
2026-05-05 01:46 38.56361 -77.37070 6428 ft 284 kts
2026-05-05 01:46 38.58275 -77.36530 6071 ft 281 kts
2026-05-05 01:46 38.60213 -77.36267 5912 ft 276 kts 355°
2026-05-05 01:46 38.62143 -77.36176 5932 ft 278 kts 354°
2026-05-05 01:47 38.64076 -77.36113 5948 ft 277 kts 354°
2026-05-05 01:47 38.66018 -77.36054 5954 ft 277 kts 354°
2026-05-05 01:47 38.67932 -77.35994 5778 ft 279 kts 354°
2026-05-05 01:47 38.69898 -77.35932 5386 ft 279 kts 354°
2026-05-05 01:48 38.71834 -77.35865 5022 ft 278 kts 354°
2026-05-05 01:48 38.73776 -77.35799 4673 ft 277 kts 354°
2026-05-05 01:48 38.75708 -77.35728 4327 ft 275 kts 354°
2026-05-05 01:48 38.77618 -77.35661 4045 ft 274 kts 354°
2026-05-05 01:49 38.79522 -77.35596 4004 ft 276 kts 354°
2026-05-05 01:49 38.81443 -77.35531 4003 ft 277 kts 354°
2026-05-05 01:49 38.83378 -77.35461 4004 ft 277 kts 354°
2026-05-05 01:49 38.85327 -77.35393 4003 ft 278 kts 354°
2026-05-05 01:50 38.87248 -77.35323 4003 ft 277 kts 354°
2026-05-05 01:50 38.89182 -77.35250 4003 ft 277 kts 354°
2026-05-05 01:50 38.91099 -77.35181 4005 ft 278 kts 354°
2026-05-05 01:50 38.93058 -77.35113 4004 ft 277 kts 354°
2026-05-05 01:51 38.94981 -77.35046 4005 ft 278 kts 354°
2026-05-05 01:51 38.96931 -77.34976 4005 ft 279 kts 355°
2026-05-05 01:51 38.98822 -77.34910 4002 ft 279 kts 355°
2026-05-05 01:51 39.00834 -77.34839 4001 ft 278 kts 354°
2026-05-05 01:52 39.02772 -77.34771 4004 ft 277 kts 354°
2026-05-05 01:52 39.04713 -77.34702 4006 ft 277 kts 354°
2026-05-05 01:52 39.06650 -77.34631 4006 ft 277 kts 354°
2026-05-05 01:52 39.08579 -77.34560 4006 ft 278 kts 354°
2026-05-05 01:53 39.10517 -77.34490 4006 ft 278 kts 354°
2026-05-05 01:53 39.12456 -77.34423 4007 ft 278 kts 355°
2026-05-05 01:53 39.14404 -77.34354 4006 ft 277 kts 354°
2026-05-05 01:53 39.16357 -77.34292 4003 ft 276 kts 354°
2026-05-05 01:54 39.18297 -77.34229 4005 ft 278 kts 354°
2026-05-05 01:54 39.20214 -77.34158 4006 ft 279 kts 355°
2026-05-05 01:54 39.22165 -77.34083 4007 ft 279 kts 355°
2026-05-05 01:54 39.24105 -77.34025 4002 ft 278 kts 352°
2026-05-05 01:55 39.25908 -77.34607 3962 ft 258 kts 321°
2026-05-05 01:55 39.27020 -77.36216 3955 ft 228 kts 288°
2026-05-05 01:55 39.27378 -77.38099 3955 ft 206 kts 268°
2026-05-05 01:55 39.27245 -77.39844 3945 ft 189 kts 252°
2026-05-05 01:56 39.26748 -77.41331 3941 ft 179 kts 237°
2026-05-05 01:56 39.25928 -77.42560 4037 ft 181 kts 224°
2026-05-05 01:56 39.24851 -77.43424 4011 ft 187 kts 207°
2026-05-05 01:56 39.23530 -77.43637 4018 ft 196 kts 184°
2026-05-05 01:57 39.22170 -77.43514 4012 ft 197 kts 182°
2026-05-05 01:57 39.20797 -77.43406 4001 ft 196 kts 185°
2026-05-05 01:57 39.19429 -77.43351 3998 ft 196 kts 186°
2026-05-05 01:57 39.18060 -77.43330 3996 ft 196 kts 187°
2026-05-05 01:58 39.16740 -77.43327 3979 ft 184 kts 188°
2026-05-05 01:58 39.15462 -77.43330 3977 ft 181 kts 188°
2026-05-05 01:58 39.14203 -77.43334 3833 ft 181 kts 188°
2026-05-05 01:58 39.12952 -77.43336 3564 ft 179 kts 188°
2026-05-05 01:59 39.11736 -77.43342 3309 ft 169 kts 188°
2026-05-05 01:59 39.10599 -77.43360 3084 ft 159 kts 189°
2026-05-05 01:59 39.09490 -77.43394 2862 ft 156 kts 189°
2026-05-05 01:59 39.08423 -77.43420 2628 ft 151 kts 189°
2026-05-05 02:00 39.07371 -77.43436 2460 ft 147 kts 188°
2026-05-05 02:00 39.06378 -77.43451 2262 ft 138 kts 189°
2026-05-05 02:00 39.05413 -77.43474 2123 ft 138 kts 188°
2026-05-05 02:00 39.04452 -77.43494 2012 ft 137 kts 188°
2026-05-05 02:01 39.03519 -77.43509 1833 ft 134 kts 188°
2026-05-05 02:01 39.02574 -77.43521 1651 ft 133 kts 188°
2026-05-05 02:01 39.01784 -77.43532 1499 ft 133 kts 187°
2026-05-05 02:01 39.00854 -77.43542 1324 ft 132 kts 186°
2026-05-05 02:02 38.99924 -77.43554 1151 ft 132 kts 185°
2026-05-05 02:02 38.98996 -77.43570 958 ft 133 kts 185°
2026-05-05 02:02 38.98075 -77.43592 827 ft 135 kts 184°
2026-05-05 02:02 38.97121 -77.43584 657 ft 137 kts 182°
2026-05-05 02:03 38.96164 -77.43593 472 ft 136 kts 183°
2026-05-05 02:03 38.95209 -77.43607 325 ft 132 kts 182°
2026-05-05 02:03 38.94426 -77.43617 319 ft 90 kts 181°
2026-05-05 02:03 38.93967 -77.43627 319 ft 40 kts 180°
2026-05-05 02:04 38.93740 -77.43629 319 ft 30 kts 182°
2026-05-05 02:04 38.93542 -77.43653 319 ft 27 kts 197°
2026-05-05 02:04 38.93375 -77.43758 319 ft 24 kts 212°
2026-05-05 02:04 38.93323 -77.43875 319 ft 15 kts 271°
2026-05-05 02:05 38.93362 -77.43990 319 ft 15 kts 347°
2026-05-05 02:05 38.93468 -77.43990 319 ft 15 kts
2026-05-05 02:05 38.93574 -77.43988 319 ft 15 kts
2026-05-05 02:05 38.93684 -77.43986 319 ft 15 kts
2026-05-05 02:06 38.93799 -77.43985 319 ft 16 kts
2026-05-05 02:06 38.93894 -77.43983 319 ft 16 kts
2026-05-05 02:06 38.94014 -77.43980 319 ft 17 kts
2026-05-05 02:06 38.94143 -77.43980 319 ft 18 kts
2026-05-05 02:07 38.94271 -77.43979 319 ft 18 kts
2026-05-05 02:07 38.94403 -77.43976 319 ft 19 kts
2026-05-05 02:07 38.94451 -77.43976 319 ft 19 kts
2026-05-05 02:07 38.94587 -77.43973 319 ft 16 kts
2026-05-05 02:08 38.94655 -77.44032 319 ft 13 kts 282°
2026-05-05 02:08 38.94657 -77.44156 319 ft 14 kts 272°
2026-05-05 02:08 38.94658 -77.44288 319 ft 15 kts 272°
2026-05-05 02:08 38.94659 -77.44424 319 ft 15 kts 271°
2026-05-05 02:09 38.94660 -77.44560 319 ft 12 kts 270°
2026-05-05 02:09 38.94616 -77.44630 319 ft 5 kts 199°
2026-05-05 02:09 38.94594 -77.44636 319 ft 1 kts 194°
2026-05-05 02:09 38.94590 -77.44637 319 ft 0 kts 194°